| time (UTC) | temp F | wind direction | speed knots | gust knots | rain 1hr in | rain 24hr in | rain mn in | humidity % | barometer mb |
| 20260502150120 | 67 | 73 | 0.9 | 1.7 | 0.00 | 0.00 | 0.00 | 63 | 4248.8 |
| 20260502130509 | 53 | 143 | 0.0 | 0.0 | 0.00 | 0.00 | 0.00 | 89 | 4247.9 |
| 20260502123451 | 52 | 137 | 0.0 | 0.0 | 0.00 | 0.00 | 0.00 | 89 | 4247.8 |
| 20260502122948 | 51 | 137 | 0.0 | 0.0 | 0.00 | 0.00 | 0.00 | 89 | 4247.6 |
| 20260502122444 | 51 | 137 | 0.0 | 0.0 | 0.00 | 0.00 | 0.00 | 89 | 4247.5 |
| 20260502121943 | 51 | 138 | 0.0 | 0.0 | 0.00 | 0.00 | 0.00 | 89 | 4247.6 |
| 20260502121439 | 50 | 146 | 0.0 | 0.0 | 0.00 | 0.00 | 0.00 | 89 | 4247.6 |
| 20260502120937 | 50 | 159 | 0.0 | 0.0 | 0.00 | 0.00 | 0.00 | 89 | 4247.6 |
| 20260502120433 | 50 | 163 | 0.0 | 0.0 | 0.00 | 0.00 | 0.00 | 89 | 4247.4 |
| 20260502115930 | 50 | 164 | 0.0 | 0.0 | 0.00 | 0.00 | 0.00 | 89 | 4247.3 |
| 20260502115428 | 50 | 160 | 0.0 | 0.0 | 0.00 | 0.00 | 0.00 | 89 | 4247.2 |
| 20260502114923 | 50 | 158 | 0.0 | 0.0 | 0.00 | 0.00 | 0.00 | 89 | 4246.9 |
| 20260502114421 | 50 | 154 | 0.0 | 0.0 | 0.00 | 0.00 | 0.00 | 89 | 4246.9 |
| 20260502113918 | 50 | 142 | 0.0 | 0.0 | 0.00 | 0.00 | 0.00 | 89 | 4246.7 |
| 20260502113415 | 50 | 152 | 0.0 | 0.0 | 0.00 | 0.00 | 0.00 | 89 | 4246.4 |
| 20260502112914 | 50 | 147 | 0.0 | 0.0 | 0.00 | 0.00 | 0.00 | 89 | 4246.2 |
| 20260502112411 | 50 | 141 | 0.0 | 0.0 | 0.00 | 0.00 | 0.00 | 89 | 4246.2 |
| 20260502111908 | 50 | 143 | 0.0 | 0.0 | 0.00 | 0.00 | 0.00 | 89 | 4246.0 |
| 20260502111405 | 50 | 146 | 0.0 | 0.0 | 0.00 | 0.00 | 0.00 | 89 | 4246.1 |
| 20260502110902 | 50 | 144 | 0.0 | 0.0 | 0.00 | 0.00 | 0.00 | 89 | 4246.3 |
| 20260502110400 | 50 | 153 | 0.0 | 0.0 | 0.00 | 0.00 | 0.00 | 89 | 4246.2 |
| 20260502105858 | 50 | 154 | 0.0 | 0.0 | 0.00 | 0.00 | 0.00 | 89 | 4246.4 |
| 20260502105354 | 50 | 154 | 0.0 | 0.0 | 0.00 | 0.00 | 0.00 | 89 | 4246.5 |
| 20260502104852 | 50 | 154 | 0.0 | 0.0 | 0.00 | 0.00 | 0.00 | 89 | 4246.5 |
| 20260502104349 | 51 | 156 | 0.0 | 0.0 | 0.00 | 0.00 | 0.00 | 89 | 4246.2 |
| 20260502103847 | 51 | 158 | 0.0 | 0.0 | 0.00 | 0.00 | 0.00 | 89 | 4246.4 |
| 20260502103344 | 51 | 158 | 0.0 | 0.0 | 0.00 | 0.00 | 0.00 | 89 | 4246.3 |
| 20260502102841 | 51 | 157 | 0.0 | 0.0 | 0.00 | 0.00 | 0.00 | 89 | 4246.3 |
| 20260502102337 | 51 | 157 | 0.0 | 0.0 | 0.00 | 0.00 | 0.00 | 89 | 4246.3 |
| 20260502101835 | 51 | 157 | 0.0 | 0.0 | 0.00 | 0.00 | 0.00 | 89 | 4246.1 |
| 20260502101333 | 51 | 158 | 0.0 | 0.0 | 0.00 | 0.00 | 0.00 | 89 | 4246.2 |
| 20260502100831 | 51 | 156 | 0.0 | 0.0 | 0.00 | 0.00 | 0.00 | 89 | 4246.0 |
| 20260502100331 | 51 | 157 | 0.0 | 0.0 | 0.00 | 0.00 | 0.00 | 89 | 4246.1 |
| 20260502091304 | 52 | 156 | 0.0 | 0.0 | 0.00 | 0.00 | 0.00 | 89 | 4245.9 |
| 20260502090801 | 53 | 156 | 0.0 | 0.0 | 0.00 | 0.00 | 0.00 | 89 | 4245.8 |
| 20260502090258 | 53 | 156 | 0.0 | 0.0 | 0.00 | 0.00 | 0.00 | 89 | 4245.8 |
| 20260502071159 | 54 | 152 | 0.0 | 0.0 | 0.00 | 0.00 | 0.00 | 88 | 4246.0 |
| 20260502070657 | 54 | 146 | 0.0 | 0.0 | 0.00 | 0.00 | 0.00 | 88 | 4245.8 |
| 20260502070154 | 54 | 148 | 0.0 | 0.0 | 0.00 | 0.00 | 0.00 | 89 | 4246.0 |
| 20260502065653 | 55 | 150 | 0.0 | 0.0 | 0.00 | 0.00 | 0.00 | 89 | 4245.9 |
| 20260502065149 | 55 | 144 | 0.0 | 0.0 | 0.00 | 0.00 | 0.00 | 89 | 4245.9 |
| 20260502064649 | 55 | 150 | 0.0 | 0.0 | 0.00 | 0.00 | 0.00 | 89 | 4246.1 |
| 20260502064145 | 55 | 167 | 0.0 | 0.0 | 0.00 | 0.00 | 0.00 | 89 | 4245.9 |
| 20260502063643 | 55 | 179 | 0.0 | 0.0 | 0.00 | 0.00 | 0.00 | 89 | 4246.1 |
| 20260502063141 | 55 | 166 | 0.0 | 0.0 | 0.00 | 0.00 | 0.00 | 88 | 4246.1 |
| 20260502062637 | 55 | 162 | 0.0 | 0.0 | 0.00 | 0.00 | 0.00 | 88 | 4245.7 |
| 20260502062135 | 55 | 164 | 0.0 | 0.0 | 0.00 | 0.00 | 0.00 | 88 | 4246.0 |
| 20260502061633 | 55 | 194 | 0.0 | 0.0 | 0.00 | 0.00 | 0.00 | 88 | 4245.6 |
| 20260502061130 | 55 | 165 | 0.0 | 0.0 | 0.00 | 0.00 | 0.00 | 88 | 4245.9 |
| 20260502060630 | 55 | 137 | 0.0 | 0.0 | 0.00 | 0.00 | 0.00 | 88 | 4245.7 |
| 20260502060127 | 55 | 136 | 0.0 | 0.9 | 0.00 | 0.00 | 0.00 | 88 | 4246.2 |
| 20260502055625 | 55 | 137 | 0.9 | 0.9 | 0.00 | 0.00 | 0.00 | 89 | 4245.7 |
| 20260502055123 | 55 | 138 | 0.9 | 0.9 | 0.00 | 0.00 | 0.00 | 89 | 4245.8 |
| 20260502054622 | 55 | 138 | 0.0 | 0.9 | 0.00 | 0.00 | 0.00 | 89 | 4245.7 |
| 20260502054119 | 55 | 138 | 0.0 | 0.0 | 0.00 | 0.00 | 0.00 | 89 | 4245.8 |
| 20260502053616 | 55 | 138 | 0.0 | 0.0 | 0.00 | 0.00 | 0.00 | 89 | 4246.0 |
| 20260502053113 | 55 | 138 | 0.9 | 0.9 | 0.00 | 0.00 | 0.00 | 89 | 4245.9 |
| 20260502052611 | 55 | 140 | 0.0 | 0.0 | 0.00 | 0.00 | 0.00 | 89 | 4246.1 |
| 20260502052109 | 55 | 143 | 0.0 | 0.0 | 0.00 | 0.00 | 0.00 | 89 | 4246.0 |
| 20260502051607 | 55 | 143 | 0.0 | 0.0 | 0.00 | 0.00 | 0.00 | 89 | 4246.0 |
| 20260502051105 | 55 | 143 | 0.0 | 0.0 | 0.00 | 0.00 | 0.00 | 89 | 4246.1 |
| 20260502050600 | 55 | 152 | 0.0 | 0.0 | 0.00 | 0.00 | 0.00 | 89 | 4246.3 |
| 20260502050057 | 55 | 142 | 0.0 | 0.0 | 0.00 | 0.00 | 0.00 | 89 | 4246.2 |
| 20260502045554 | 55 | 143 | 0.0 | 0.0 | 0.00 | 0.08 | 0.08 | 89 | 4245.8 |
| 20260502045051 | 55 | 142 | 0.0 | 0.0 | 0.00 | 0.08 | 0.08 | 89 | 4246.0 |
| 20260502044547 | 55 | 144 | 0.0 | 0.0 | 0.00 | 0.08 | 0.08 | 89 | 4245.7 |
| 20260502044044 | 55 | 152 | 0.0 | 0.0 | 0.00 | 0.08 | 0.08 | 89 | 4245.9 |
| 20260502043542 | 55 | 157 | 0.0 | 0.0 | 0.00 | 0.08 | 0.08 | 89 | 4245.8 |
| 20260502043038 | 55 | 166 | 0.0 | 0.0 | 0.00 | 0.08 | 0.08 | 89 | 4245.9 |
| 20260502042533 | 55 | 165 | 0.0 | 0.0 | 0.00 | 0.08 | 0.08 | 89 | 4246.0 |
| 20260502042031 | 55 | 165 | 0.0 | 0.0 | 0.00 | 0.08 | 0.08 | 89 | 4245.9 |
| 20260502041529 | 55 | 165 | 0.0 | 0.0 | 0.00 | 0.08 | 0.08 | 89 | 4245.6 |
| 20260502041025 | 55 | 170 | 0.0 | 0.0 | 0.00 | 0.08 | 0.08 | 88 | 4245.8 |
| 20260502040522 | 55 | 173 | 0.0 | 0.0 | 0.00 | 0.08 | 0.08 | 89 | 4245.8 |
| 20260502040019 | 55 | 186 | 0.0 | 0.9 | 0.00 | 0.08 | 0.08 | 88 | 4245.7 |
| 20260502035515 | 56 | 190 | 0.0 | 0.9 | 0.00 | 0.08 | 0.08 | 88 | 4245.8 |
| 20260502035013 | 56 | 192 | 0.0 | 0.0 | 0.00 | 0.08 | 0.08 | 88 | 4245.8 |
| 20260502034510 | 56 | 194 | 0.0 | 0.0 | 0.00 | 0.08 | 0.08 | 88 | 4245.6 |
| 20260502034009 | 56 | 192 | 0.0 | 0.9 | 0.00 | 0.08 | 0.08 | 88 | 4245.6 |
| 20260502033507 | 57 | 168 | 0.0 | 0.9 | 0.00 | 0.08 | 0.08 | 87 | 4245.8 |
| 20260502033003 | 57 | 184 | 0.0 | 0.0 | 0.00 | 0.08 | 0.08 | 87 | 4245.4 |
| 20260502032459 | 57 | 180 | 0.0 | 0.0 | 0.00 | 0.08 | 0.08 | 87 | 4245.6 |
| 20260502031956 | 57 | 182 | 0.0 | 0.9 | 0.00 | 0.08 | 0.08 | 87 | 4245.3 |
| 20260502031454 | 57 | 133 | 0.0 | 0.0 | 0.00 | 0.08 | 0.08 | 88 | 4245.4 |
| 20260502030952 | 57 | 116 | 0.9 | 0.9 | 0.00 | 0.08 | 0.08 | 87 | 4245.3 |
| 20260502030450 | 57 | 117 | 0.9 | 0.9 | 0.00 | 0.08 | 0.08 | 87 | 4245.1 |
| 20260502025948 | 57 | 111 | 0.0 | 0.9 | 0.00 | 0.08 | 0.08 | 87 | 4245.1 |
| 20260502025445 | 57 | 111 | 0.0 | 0.0 | 0.00 | 0.08 | 0.08 | 87 | 4245.0 |
| 20260502024943 | 57 | 126 | 0.0 | 0.0 | 0.00 | 0.08 | 0.08 | 86 | 4245.1 |
| 20260502024441 | 57 | 136 | 0.0 | 0.0 | 0.00 | 0.08 | 0.08 | 86 | 4245.1 |
| 20260502023939 | 57 | 119 | 0.0 | 0.9 | 0.00 | 0.08 | 0.08 | 86 | 4245.3 |
| 20260502023436 | 58 | 127 | 0.0 | 0.9 | 0.00 | 0.08 | 0.08 | 86 | 4245.2 |
| 20260502022933 | 57 | 210 | 0.9 | 1.7 | 0.00 | 0.08 | 0.08 | 87 | 4245.1 |
| 20260502022429 | 57 | 159 | 0.0 | 0.0 | 0.00 | 0.08 | 0.08 | 86 | 4245.1 |
| 20260502021926 | 57 | 128 | 0.0 | 0.0 | 0.00 | 0.08 | 0.08 | 86 | 4245.3 |
| 20260502021424 | 57 | 112 | 0.0 | 0.9 | 0.00 | 0.08 | 0.08 | 85 | 4245.2 |
| 20260502020921 | 57 | 115 | 0.0 | 0.0 | 0.00 | 0.08 | 0.08 | 85 | 4245.2 |
| 20260502020419 | 57 | 114 | 0.0 | 0.0 | 0.00 | 0.08 | 0.08 | 85 | 4245.1 |
| 20260502015915 | 57 | 134 | 0.0 | 0.0 | 0.00 | 0.08 | 0.08 | 84 | 4245.2 |
| 20260502015413 | 57 | 143 | 0.0 | 0.0 | 0.00 | 0.08 | 0.08 | 84 | 4245.2 |
| 20260502014909 | 57 | 134 | 0.0 | 0.0 | 0.00 | 0.08 | 0.08 | 84 | 4245.1 |
| 20260502014406 | 57 | 132 | 0.9 | 0.9 | 0.00 | 0.08 | 0.08 | 84 | 4244.7 |
| 20260502013902 | 58 | 130 | 0.0 | 0.9 | 0.00 | 0.08 | 0.08 | 84 | 4244.4 |
| 20260502013358 | 58 | 128 | 0.0 | 0.0 | 0.00 | 0.08 | 0.08 | 83 | 4244.5 |
| 20260502012855 | 58 | 141 | 0.0 | 0.0 | 0.00 | 0.08 | 0.08 | 83 | 4244.6 |
| 20260502012353 | 58 | 131 | 0.9 | 0.9 | 0.00 | 0.08 | 0.08 | 84 | 4244.3 |
| 20260502011850 | 58 | 182 | 0.9 | 0.9 | 0.00 | 0.08 | 0.08 | 85 | 4244.4 |
| 20260502011346 | 58 | 175 | 0.9 | 0.9 | 0.00 | 0.08 | 0.08 | 84 | 4244.0 |
| 20260502010843 | 58 | 131 | 0.0 | 0.0 | 0.00 | 0.08 | 0.08 | 83 | 4243.7 |
| 20260502010340 | 59 | 125 | 0.0 | 0.9 | 0.00 | 0.08 | 0.08 | 83 | 4243.6 |
| 20260502005837 | 59 | 114 | 0.0 | 0.9 | 0.00 | 0.08 | 0.08 | 81 | 4243.9 |
| 20260502005335 | 59 | 183 | 0.9 | 1.7 | 0.00 | 0.08 | 0.08 | 81 | 4244.2 |
| 20260502004832 | 59 | 188 | 0.9 | 0.9 | 0.00 | 0.08 | 0.08 | 81 | 4243.7 |
| 20260502004327 | 59 | 137 | 0.9 | 0.9 | 0.00 | 0.08 | 0.08 | 81 | 4243.7 |
| 20260502003826 | 59 | 171 | 0.0 | 0.0 | 0.00 | 0.08 | 0.08 | 81 | 4243.9 |
| 20260502003322 | 59 | 275 | 0.9 | 0.9 | 0.00 | 0.08 | 0.08 | 81 | 4243.5 |
| 20260502002818 | 60 | 156 | 0.0 | 0.0 | 0.00 | 0.08 | 0.08 | 81 | 4243.4 |
| 20260502002316 | 60 | 132 | 0.0 | 0.0 | 0.00 | 0.08 | 0.08 | 80 | 4243.1 |
| 20260502001813 | 59 | 125 | 0.0 | 0.0 | 0.00 | 0.08 | 0.08 | 78 | 4243.5 |
| 20260502001311 | 60 | 121 | 0.0 | 0.0 | 0.00 | 0.08 | 0.08 | 79 | 4243.3 |
| 20260502000808 | 60 | 119 | 0.0 | 0.0 | 0.00 | 0.08 | 0.08 | 80 | 4243.1 |
| 20260502000306 | 60 | 116 | 0.0 | 0.0 | 0.00 | 0.08 | 0.08 | 79 | 4243.1 |
| 20260501235801 | 61 | 102 | 0.9 | 0.9 | 0.00 | 0.08 | 0.08 | 79 | 4243.2 |
| 20260501235258 | 61 | 163 | 0.0 | 0.9 | 0.00 | 0.08 | 0.08 | 78 | 4243.2 |
| 20260501234753 | 61 | 126 | 0.0 | 0.0 | 0.00 | 0.08 | 0.08 | 77 | 4243.5 |
| 20260501234250 | 61 | 90 | 0.9 | 0.9 | 0.00 | 0.08 | 0.08 | 78 | 4243.4 |
| 20260501233749 | 60 | 140 | 0.0 | 0.0 | 0.00 | 0.08 | 0.08 | 79 | 4243.6 |
| 20260501233246 | 60 | 164 | 0.0 | 0.0 | 0.00 | 0.08 | 0.08 | 80 | 4243.8 |
| 20260501232741 | 60 | 209 | 0.9 | 0.9 | 0.00 | 0.08 | 0.08 | 78 | 4243.4 |
| 20260501232239 | 60 | 125 | 0.0 | 0.0 | 0.00 | 0.08 | 0.08 | 79 | 4243.1 |
| 20260501231737 | 60 | 88 | 0.0 | 0.9 | 0.00 | 0.08 | 0.08 | 79 | 4243.0 |
| 20260501231235 | 60 | 111 | 0.0 | 0.9 | 0.00 | 0.08 | 0.08 | 78 | 4243.2 |
| 20260501230732 | 60 | 168 | 0.0 | 0.0 | 0.00 | 0.08 | 0.08 | 77 | 4243.7 |
| 20260501230231 | 61 | 206 | 0.9 | 0.9 | 0.00 | 0.08 | 0.08 | 76 | 4243.5 |
| 20260501225728 | 61 | 127 | 0.0 | 0.0 | 0.00 | 0.08 | 0.08 | 72 | 4243.3 |
| 20260501225225 | 61 | 125 | 0.0 | 0.0 | 0.00 | 0.08 | 0.08 | 72 | 4243.2 |
| 20260501224721 | 62 | 117 | 0.9 | 1.7 | 0.00 | 0.08 | 0.08 | 71 | 4243.1 |
| 20260501224219 | 61 | 109 | 0.0 | 0.0 | 0.00 | 0.08 | 0.08 | 69 | 4243.1 |
| 20260501223715 | 62 | 104 | 0.9 | 0.9 | 0.00 | 0.08 | 0.08 | 70 | 4242.4 |
| 20260501223212 | 62 | 93 | 0.0 | 0.9 | 0.00 | 0.08 | 0.08 | 70 | 4242.4 |
| 20260501222708 | 62 | 105 | 0.0 | 0.9 | 0.00 | 0.08 | 0.08 | 72 | 4242.6 |
| 20260501222205 | 61 | 115 | 0.0 | 0.9 | 0.00 | 0.08 | 0.08 | 71 | 4242.5 |
| 20260501221701 | 61 | 162 | 0.0 | 0.9 | 0.00 | 0.08 | 0.08 | 72 | 4242.6 |
| 20260501221159 | 62 | 106 | 0.9 | 0.9 | 0.00 | 0.08 | 0.08 | 72 | 4242.2 |
| 20260501220656 | 62 | 114 | 0.9 | 0.9 | 0.00 | 0.08 | 0.08 | 72 | 4241.7 |
| 20260501220153 | 62 | 100 | 0.9 | 0.9 | 0.00 | 0.08 | 0.08 | 71 | 4241.7 |
| 20260501215650 | 62 | 150 | 0.9 | 0.9 | 0.00 | 0.08 | 0.08 | 70 | 4241.5 |
| 20260501215146 | 62 | 122 | 0.0 | 0.0 | 0.00 | 0.08 | 0.08 | 72 | 4241.5 |
| 20260501214641 | 62 | 102 | 0.9 | 0.9 | 0.00 | 0.08 | 0.08 | 72 | 4241.6 |
| 20260501214136 | 62 | 102 | 0.0 | 0.0 | 0.00 | 0.08 | 0.08 | 72 | 4241.7 |
| 20260501213634 | 62 | 126 | 0.9 | 0.9 | 0.00 | 0.08 | 0.08 | 72 | 4242.0 |
| 20260501213129 | 62 | 110 | 0.0 | 0.9 | 0.00 | 0.08 | 0.08 | 68 | 4242.1 |
| 20260501212626 | 62 | 116 | 0.0 | 0.9 | 0.00 | 0.08 | 0.08 | 68 | 4241.9 |
| 20260501212123 | 62 | 122 | 0.0 | 0.9 | 0.00 | 0.08 | 0.08 | 66 | 4242.2 |
| 20260501211619 | 62 | 113 | 1.7 | 1.7 | 0.00 | 0.08 | 0.08 | 64 | 4242.4 |
| 20260501211118 | 62 | 121 | 0.0 | 0.0 | 0.00 | 0.08 | 0.08 | 64 | 4242.4 |
| 20260501210614 | 62 | 153 | 0.0 | 0.9 | 0.00 | 0.08 | 0.08 | 65 | 4242.5 |
| 20260501210111 | 62 | 145 | 0.9 | 0.9 | 0.00 | 0.08 | 0.08 | 62 | 4242.8 |
| 20260501205607 | 62 | 108 | 1.7 | 2.6 | 0.00 | 0.08 | 0.08 | 63 | 4242.8 |
| 20260501205105 | 62 | 79 | 0.0 | 0.0 | 0.00 | 0.08 | 0.08 | 65 | 4242.8 |
| 20260501204601 | 62 | 78 | 0.9 | 0.9 | 0.00 | 0.08 | 0.08 | 65 | 4242.9 |
| 20260501204057 | 63 | 104 | 1.7 | 1.7 | 0.00 | 0.08 | 0.08 | 63 | 4243.1 |
| 20260501203554 | 63 | 124 | 0.0 | 0.0 | 0.00 | 0.08 | 0.08 | 62 | 4243.2 |
| 20260501203051 | 63 | 93 | 0.9 | 0.9 | 0.00 | 0.08 | 0.08 | 64 | 4243.0 |
| 20260501202548 | 63 | 67 | 1.7 | 1.7 | 0.00 | 0.08 | 0.08 | 63 | 4242.8 |
| 20260501202045 | 64 | 242 | 1.7 | 4.3 | 0.00 | 0.08 | 0.08 | 62 | 4242.5 |
| 20260501201542 | 63 | 131 | 0.9 | 0.9 | 0.00 | 0.08 | 0.08 | 66 | 4242.3 |
| 20260501201038 | 62 | 103 | 0.9 | 1.7 | 0.00 | 0.08 | 0.08 | 64 | 4242.1 |
| 20260501200535 | 62 | 341 | 2.6 | 2.6 | 0.00 | 0.08 | 0.08 | 65 | 4241.9 |
| 20260501200033 | 62 | 25 | 2.6 | 5.2 | 0.00 | 0.08 | 0.08 | 62 | 4241.7 |
| 20260501195530 | 62 | 35 | 2.6 | 5.2 | 0.00 | 0.08 | 0.08 | 64 | 4241.5 |
| 20260501195025 | 63 | 0 | 3.5 | 4.3 | 0.00 | 0.08 | 0.08 | 62 | 4241.7 |
| 20260501194521 | 63 | 347 | 2.6 | 4.3 | 0.00 | 0.08 | 0.08 | 64 | 4241.5 |
| 20260501194017 | 63 | 117 | 1.7 | 4.3 | 0.00 | 0.08 | 0.08 | 64 | 4241.6 |
| 20260501193515 | 63 | 10 | 2.6 | 2.6 | 0.00 | 0.08 | 0.08 | 66 | 4241.9 |
| 20260501193014 | 63 | 93 | 0.0 | 0.0 | 0.00 | 0.08 | 0.08 | 70 | 4242.0 |
| 20260501192510 | 63 | 108 | 2.6 | 2.6 | 0.00 | 0.08 | 0.08 | 68 | 4242.2 |
| 20260501192008 | 63 | 54 | 2.6 | 2.6 | 0.00 | 0.08 | 0.08 | 72 | 4241.9 |
| 20260501191504 | 62 | 28 | 0.9 | 1.7 | 0.00 | 0.08 | 0.08 | 73 | 4242.4 |
| 20260501191001 | 63 | 316 | 3.5 | 6.1 | 0.00 | 0.08 | 0.08 | 72 | 4242.4 |
| 20260501190457 | 62 | 22 | 2.6 | 2.6 | 0.00 | 0.08 | 0.08 | 73 | 4242.7 |
| 20260501185953 | 61 | 59 | 0.0 | 0.9 | 0.00 | 0.08 | 0.08 | 77 | 4242.3 |
| 20260501185449 | 60 | 152 | 2.6 | 2.6 | 0.00 | 0.08 | 0.08 | 76 | 4242.9 |
| 20260501184945 | 60 | 24 | 2.6 | 2.6 | 0.00 | 0.08 | 0.08 | 76 | 4242.9 |
| 20260501184442 | 60 | 56 | 0.9 | 1.7 | 0.00 | 0.08 | 0.08 | 77 | 4243.3 |
| 20260501183936 | 60 | 91 | 1.7 | 1.7 | 0.00 | 0.08 | 0.08 | 77 | 4243.5 |
| 20260501183433 | 59 | 35 | 1.7 | 2.6 | 0.00 | 0.08 | 0.08 | 80 | 4243.4 |
| 20260501182930 | 58 | 313 | 1.7 | 1.7 | 0.00 | 0.08 | 0.08 | 83 | 4243.6 |
| 20260501182427 | 59 | 115 | 0.9 | 0.9 | 0.00 | 0.08 | 0.08 | 85 | 4244.0 |
| 20260501181923 | 59 | 112 | 0.9 | 0.9 | 0.00 | 0.08 | 0.08 | 85 | 4243.8 |
| 20260501181421 | 58 | 145 | 0.9 | 0.9 | 0.00 | 0.08 | 0.08 | 83 | 4244.0 |
| 20260501180918 | 58 | 30 | 2.6 | 2.6 | 0.00 | 0.08 | 0.08 | 84 | 4244.3 |
| 20260501180414 | 58 | 67 | 1.7 | 1.7 | 0.00 | 0.08 | 0.08 | 84 | 4244.3 |
| 20260501175911 | 58 | 54 | 0.9 | 1.7 | 0.00 | 0.08 | 0.08 | 83 | 4244.4 |
| 20260501175408 | 58 | 89 | 1.7 | 1.7 | 0.00 | 0.08 | 0.08 | 85 | 4244.2 |
| 20260501174905 | 58 | 144 | 0.0 | 0.9 | 0.00 | 0.08 | 0.08 | 86 | 4244.4 |
| 20260501174402 | 57 | 76 | 0.9 | 0.9 | 0.00 | 0.08 | 0.08 | 87 | 4244.2 |
| 20260501173900 | 57 | 121 | 0.9 | 0.9 | 0.00 | 0.08 | 0.08 | 89 | 4244.2 |
| 20260501173357 | 57 | 141 | 0.0 | 0.0 | 0.00 | 0.08 | 0.08 | 89 | 4244.5 |
| 20260501172853 | 57 | 101 | 0.9 | 0.9 | 0.00 | 0.08 | 0.08 | 89 | 4244.5 |
| 20260501172348 | 57 | 129 | 0.9 | 0.9 | 0.00 | 0.08 | 0.08 | 89 | 4244.5 |
| 20260501171843 | 57 | 117 | 0.9 | 0.9 | 0.00 | 0.08 | 0.08 | 88 | 4244.8 |
| 20260501171341 | 57 | 94 | 0.9 | 1.7 | 0.00 | 0.08 | 0.08 | 88 | 4244.8 |
| 20260501170837 | 57 | 135 | 0.0 | 0.9 | 0.00 | 0.08 | 0.08 | 88 | 4244.9 |
| 20260501170334 | 57 | 147 | 0.0 | 0.0 | 0.00 | 0.08 | 0.08 | 88 | 4245.1 |
| 20260501165832 | 57 | 121 | 0.0 | 0.9 | 0.00 | 0.08 | 0.08 | 88 | 4244.9 |
| 20260501165330 | 57 | 327 | 0.9 | 0.9 | 0.00 | 0.08 | 0.08 | 89 | 4244.8 |
| 20260501164827 | 56 | 132 | 0.9 | 0.9 | 0.00 | 0.08 | 0.08 | 89 | 4244.8 |
| 20260501164325 | 57 | 122 | 0.0 | 0.9 | 0.00 | 0.08 | 0.08 | 89 | 4244.6 |
| 20260501163820 | 56 | 80 | 0.9 | 0.9 | 0.00 | 0.08 | 0.08 | 89 | 4244.9 |
| 20260501163317 | 56 | 91 | 0.0 | 0.0 | 0.07 | 0.08 | 0.08 | 89 | 4245.1 |
| 20260501162814 | 56 | 91 | 0.0 | 0.9 | 0.07 | 0.08 | 0.08 | 89 | 4245.2 |
| 20260501162311 | 56 | 82 | 0.0 | 0.9 | 0.05 | 0.07 | 0.07 | 88 | 4245.4 |
| 20260501161808 | 56 | 135 | 0.0 | 0.9 | 0.05 | 0.07 | 0.07 | 88 | 4245.8 |
| 20260501161305 | 56 | 135 | 0.0 | 0.9 | 0.00 | 0.06 | 0.06 | 88 | 4245.5 |
| 20260501160801 | 56 | 133 | 0.9 | 0.9 | 0.00 | 0.06 | 0.06 | 88 | 4245.5 |
| 20260501160258 | 56 | 131 | 0.0 | 0.9 | 0.00 | 0.06 | 0.06 | 88 | 4245.6 |
| 20260501155755 | 56 | 134 | 0.9 | 0.9 | 0.07 | 0.06 | 0.06 | 88 | 4245.6 |
| 20260501155252 | 56 | 136 | 0.0 | 0.0 | 0.07 | 0.06 | 0.06 | 88 | 4245.4 |
| 20260501154749 | 56 | 120 | 0.9 | 0.9 | 0.00 | 0.05 | 0.05 | 87 | 4245.4 |
| 20260501154246 | 55 | 116 | 0.0 | 0.9 | 0.00 | 0.05 | 0.05 | 88 | 4245.3 |
| 20260501153743 | 56 | 110 | 0.0 | 0.0 | 0.00 | 0.05 | 0.05 | 88 | 4244.9 |
| 20260501153241 | 56 | 101 | 0.9 | 0.9 | 0.05 | 0.05 | 0.05 | 87 | 4244.8 |
| 20260501152737 | 55 | 96 | 0.9 | 0.9 | 0.05 | 0.05 | 0.05 | 87 | 4245.0 |
| 20260501152234 | 55 | 87 | 0.0 | 0.9 | 0.00 | 0.04 | 0.04 | 87 | 4245.0 |
| 20260501151731 | 55 | 135 | 0.0 | 0.0 | 0.00 | 0.04 | 0.04 | 87 | 4244.8 |
| 20260501151227 | 55 | 115 | 0.0 | 0.9 | 0.00 | 0.04 | 0.04 | 87 | 4245.3 |
| 20260501150724 | 55 | 89 | 0.0 | 0.0 | 0.00 | 0.04 | 0.04 | 88 | 4245.2 |